�������l�o���
Date,Time,MP-1(��Sv/h),MP-2(��Sv/h),MP-3(��Sv/h),MP-4(��Sv/h),MP-5(��Sv/h),MP-6(��Sv/h),MP-7(��Sv/h),����,����(m/s),���J
2016/08/14,00:00,0.431,0.254,0.449,0.404,0.375,0.209,0.178,�k�k��,1.4,��
2016/08/14,00:10,0.428,0.253,0.446,0.406,0.374,0.207,0.178,�k,1.1,��
2016/08/14,00:20,0.431,0.254,0.450,0.405,0.376,0.209,0.177,�k�k��,0.5,��
2016/08/14,00:30,0.430,0.253,0.446,0.404,0.374,0.207,0.178,-,CALM,��
2016/08/14,00:40,0.429,0.254,0.448,0.405,0.377,0.208,0.178,�k,2.5,��
2016/08/14,00:50,0.431,0.253,0.447,0.405,0.374,0.209,0.177,�k,4.7,��
2016/08/14,01:00,0.429,0.254,0.449,0.407,0.376,0.209,0.180,�k,3.6,��
2016/08/14,01:10,0.430,0.253,0.447,0.404,0.375,0.208,0.178,�k,3.9,��
2016/08/14,01:20,0.429,0.253,0.447,0.407,0.375,0.209,0.179,�k�k��,4.8,��
2016/08/14,01:30,0.432,0.253,0.448,0.403,0.373,0.209,0.178,�k,4.5,��
2016/08/14,01:40,0.430,0.254,0.445,0.406,0.377,0.209,0.179,�k,4.2,��
2016/08/14,01:50,0.430,0.254,0.449,0.404,0.375,0.209,0.179,�k,4.2,��
2016/08/14,02:00,0.429,0.253,0.446,0.408,0.377,0.208,0.178,�k,4.5,��
2016/08/14,02:10,0.430,0.253,0.450,0.404,0.374,0.209,0.179,�k,4.5,��
2016/08/14,02:20,0.428,0.252,0.444,0.408,0.376,0.208,0.179,�k,4.2,��
2016/08/14,02:30,0.431,0.254,0.449,0.405,0.373,0.208,0.177,�k,5.0,��
2016/08/14,02:40,0.428,0.253,0.444,0.405,0.374,0.207,0.178,�k,5.0,��
2016/08/14,02:50,0.429,0.253,0.448,0.405,0.373,0.209,0.179,�k,4.8,��
2016/08/14,03:00,0.431,0.253,0.446,0.405,0.375,0.209,0.178,�k�k��,3.9,��
2016/08/14,03:10,0.430,0.254,0.447,0.405,0.374,0.209,0.178,�k,4.7,��
2016/08/14,03:20,0.429,0.253,0.447,0.404,0.375,0.208,0.179,�k,4.4,��
2016/08/14,03:30,0.427,0.254,0.447,0.407,0.374,0.208,0.177,�k�k��,3.9,��
2016/08/14,03:40,0.430,0.253,0.448,0.404,0.374,0.209,0.179,�k,4.3,��
2016/08/14,03:50,0.427,0.253,0.446,0.407,0.374,0.207,0.178,�k�k��,3.9,��
2016/08/14,04:00,0.431,0.253,0.450,0.404,0.373,0.209,0.180,�k,4.2,��
2016/08/14,04:10,0.428,0.253,0.444,0.406,0.377,0.208,0.177,�k,4.7,��
2016/08/14,04:20,0.429,0.252,0.448,0.403,0.374,0.208,0.179,�k,5.0,��
2016/08/14,04:30,0.428,0.254,0.445,0.406,0.376,0.209,0.178,�k�k��,5.2,��
2016/08/14,04:40,0.429,0.253,0.451,0.403,0.374,0.209,0.178,�k�k��,4.8,��
2016/08/14,04:50,0.429,0.254,0.445,0.408,0.377,0.208,0.178,�k�k��,4.0,��
2016/08/14,05:00,0.429,0.252,0.449,0.404,0.373,0.207,0.179,�k�k��,2.9,��
2016/08/14,05:10,0.430,0.253,0.446,0.404,0.377,0.209,0.178,�k�k��,3.2,��
2016/08/14,05:20,0.429,0.253,0.448,0.406,0.373,0.208,0.179,�k�k��,2.5,��
2016/08/14,05:30,0.430,0.253,0.448,0.403,0.376,0.209,0.177,�k�k��,3.3,��
2016/08/14,05:40,0.428,0.254,0.448,0.407,0.374,0.207,0.179,�k�k��,4.2,��
2016/08/14,05:50,0.430,0.253,0.448,0.403,0.372,0.208,0.178,�k�k��,4.4,��
2016/08/14,06:00,0.427,0.255,0.445,0.406,0.373,0.208,0.177,�k�k��,3.4,��
2016/08/14,06:10,0.429,0.253,0.447,0.402,0.373,0.209,0.179,�k�k��,3.0,��
2016/08/14,06:20,0.428,0.254,0.445,0.406,0.376,0.208,0.177,�k,3.6,��
2016/08/14,06:30,0.429,0.253,0.448,0.405,0.373,0.208,0.177,�k,3.9,��
2016/08/14,06:40,0.430,0.253,0.445,0.404,0.375,0.208,0.176,�k,4.0,��
2016/08/14,06:50,0.426,0.254,0.446,0.405,0.374,0.207,0.175,�k,3.8,��
2016/08/14,07:00,0.430,0.252,0.448,0.402,0.372,0.210,0.177,�k,4.0,��
2016/08/14,07:10,0.428,0.254,0.444,0.402,0.374,0.207,0.177,�k,4.2,��
2016/08/14,07:20,0.426,0.252,0.442,0.406,0.374,0.209,0.177,�k�k��,5.0,��
2016/08/14,07:30,0.430,0.249,0.441,0.404,0.372,0.208,0.177,�k,5.0,��
2016/08/14,07:40,0.429,0.251,0.448,0.399,0.377,0.208,0.176,�k�k��,1.3,��
2016/08/14,07:50,0.427,0.253,0.445,0.406,0.374,0.208,0.178,�k,3.8,��
2016/08/14,08:00,0.431,0.253,0.443,0.406,0.371,0.208,0.177,�k�k��,3.6,��
2016/08/14,08:10,0.429,0.252,0.448,0.403,0.376,0.208,0.178,�k�k��,3.9,��
2016/08/14,08:20,0.425,0.251,0.448,0.401,0.377,0.207,0.179,�k��,3.9,��
2016/08/14,08:30,0.425,0.251,0.442,0.401,0.372,0.208,0.178,�k��,4.7,��
2016/08/14,08:40,0.424,0.252,0.446,0.401,0.372,0.208,0.178,�k�k��,4.7,��
2016/08/14,08:50,0.425,0.250,0.450,0.403,0.372,0.208,0.178,�k��,5.3,��
2016/08/14,09:00,0.431,0.251,0.447,0.404,0.371,0.207,0.178,�k�k��,5.6,��
2016/08/14,09:10,0.433,0.252,0.443,0.403,0.373,0.209,0.180,�k�k��,4.5,��
2016/08/14,09:20,0.429,0.251,0.443,0.406,0.371,0.210,0.178,�k��,5.3,��
2016/08/14,09:30,0.429,0.252,0.444,0.404,0.374,0.210,0.177,�k��,4.5,��
2016/08/14,09:40,0.428,0.253,0.450,0.406,0.374,0.210,0.177,�k��,5.5,��
2016/08/14,09:50,0.428,0.251,0.446,0.405,0.373,0.209,0.177,�k��,5.8,��
2016/08/14,10:00,0.426,0.253,0.445,0.406,0.371,0.209,0.178,�k��,5.0,��
2016/08/14,10:10,0.427,0.253,0.441,0.405,0.371,0.209,0.178,�k��,5.6,��
2016/08/14,10:20,0.428,0.254,0.441,0.404,0.373,0.210,0.178,�k��,5.7,��
2016/08/14,10:30,0.426,0.253,0.443,0.405,0.372,0.210,0.178,�k��,6.1,��
2016/08/14,10:40,0.427,0.252,0.443,0.406,0.373,0.209,0.178,�k��,6.2,��
2016/08/14,10:50,0.427,0.253,0.444,0.405,0.373,0.207,0.178,�k��,6.0,��
2016/08/14,11:00,0.427,0.251,0.446,0.404,0.373,0.209,0.179,�k��,5.3,��
2016/08/14,11:10,0.427,0.252,0.445,0.406,0.374,0.208,0.178,�k��,5.6,��
2016/08/14,11:20,0.426,0.252,0.444,0.403,0.374,0.208,0.178,�k��,6.1,��
2016/08/14,11:30,0.427,0.251,0.445,0.404,0.374,0.208,0.179,�k��,5.8,��
2016/08/14,11:40,0.433,0.251,0.443,0.402,0.372,0.208,0.178,�k��,5.0,��
2016/08/14,11:50,0.431,0.254,0.443,0.401,0.371,0.208,0.177,�k�k��,5.8,��
2016/08/14,12:00,0.429,0.255,0.448,0.404,0.374,0.209,0.177,�k�k��,5.3,��
2016/08/14,12:10,0.427,0.254,0.450,0.402,0.378,0.208,0.176,�k�k��,4.7,��
2016/08/14,12:20,0.426,0.253,0.449,0.402,0.377,0.209,0.177,�k�k��,4.6,��
2016/08/14,12:30,0.429,0.252,0.447,0.404,0.376,0.209,0.178,�k�k��,3.2,��
2016/08/14,12:40,0.435,0.252,0.445,0.403,0.374,0.210,0.178,�k�k��,2.9,��
2016/08/14,12:50,0.432,0.253,0.446,0.403,0.372,0.208,0.177,�k�k��,4.3,��
2016/08/14,13:00,0.429,0.251,0.447,0.403,0.372,0.209,0.177,�k��,4.5,��
2016/08/14,13:10,0.428,0.252,0.447,0.403,0.374,0.208,0.179,�k�k��,4.4,��
2016/08/14,13:20,0.428,0.252,0.447,0.403,0.375,0.209,0.178,�k��,5.6,��
2016/08/14,13:30,0.427,0.253,0.446,0.406,0.374,0.210,0.178,�k��,4.9,��
2016/08/14,13:40,0.426,0.254,0.445,0.407,0.375,0.208,0.177,�k��,4.9,��
2016/08/14,13:50,0.432,0.252,0.446,0.407,0.375,0.210,0.179,�k��,5.6,��
2016/08/14,14:00,0.433,0.252,0.446,0.405,0.375,0.209,0.179,�k��,7.3,��
2016/08/14,14:10,0.433,0.252,0.448,0.406,0.374,0.209,0.179,�k��,6.7,��
2016/08/14,14:20,0.430,0.253,0.449,0.405,0.376,0.210,0.178,�k��,5.8,��
2016/08/14,14:30,0.427,0.252,0.447,0.407,0.375,0.209,0.177,�k��,5.7,��
2016/08/14,14:40,0.428,0.253,0.449,0.406,0.375,0.207,0.178,�k��,4.8,��
2016/08/14,14:50,0.426,0.253,0.447,0.404,0.373,0.208,0.178,�k��,5.0,��
2016/08/14,15:00,0.434,0.252,0.448,0.406,0.373,0.208,0.177,�k��,4.3,��
2016/08/14,15:10,0.433,0.255,0.445,0.403,0.372,0.208,0.178,�k��,4.1,��
2016/08/14,15:20,0.429,0.255,0.444,0.402,0.371,0.209,0.179,�k��,3.7,��
2016/08/14,15:30,0.428,0.255,0.446,0.408,0.378,0.209,0.179,�k��,3.3,��
2016/08/14,15:40,0.434,0.253,0.451,0.408,0.378,0.210,0.178,�k��,3.7,��
2016/08/14,15:50,0.434,0.252,0.451,0.406,0.374,0.210,0.177,�k��,2.3,��
2016/08/14,16:00,0.429,0.255,0.447,0.404,0.373,0.209,0.178,�k��,1.9,��
2016/08/14,16:10,0.427,0.255,0.445,0.404,0.371,0.209,0.180,�k��,2.9,��
2016/08/14,16:20,0.432,0.254,0.447,0.409,0.375,0.209,0.180,�k��,1.2,��
2016/08/14,16:30,0.433,0.252,0.452,0.409,0.379,0.208,0.178,�k�k��,2.1,��
2016/08/14,16:40,0.432,0.254,0.451,0.407,0.377,0.209,0.178,�k�k��,2.1,��
2016/08/14,16:50,0.428,0.255,0.447,0.404,0.373,0.207,0.178,�k�k��,2.4,��
2016/08/14,17:00,0.430,0.254,0.445,0.407,0.372,0.208,0.180,�k�k��,1.5,��
2016/08/14,17:10,0.435,0.252,0.452,0.409,0.376,0.208,0.180,�k,1.8,��
2016/08/14,17:20,0.431,0.254,0.450,0.407,0.377,0.209,0.179,�k,2.3,��
2016/08/14,17:30,0.428,0.256,0.447,0.404,0.376,0.208,0.178,�k,2.0,��
2016/08/14,17:40,0.431,0.254,0.445,0.409,0.372,0.209,0.180,�k�k��,2.5,��
2016/08/14,17:50,0.434,0.254,0.452,0.408,0.376,0.209,0.180,�k,2.1,��
2016/08/14,18:00,0.431,0.255,0.450,0.405,0.377,0.209,0.179,�k,2.1,��
2016/08/14,18:10,0.430,0.254,0.447,0.404,0.374,0.208,0.178,���쓌,1.6,��
2016/08/14,18:20,0.434,0.254,0.448,0.411,0.371,0.209,0.180,�k,2.0,��
2016/08/14,18:30,0.432,0.255,0.451,0.408,0.378,0.210,0.180,�k�k��,1.3,��
2016/08/14,18:40,0.427,0.255,0.446,0.404,0.377,0.210,0.179,�k�k��,0.8,��
2016/08/14,18:50,0.433,0.253,0.446,0.409,0.373,0.208,0.180,�k�k��,1.3,��
2016/08/14,19:00,0.434,0.255,0.451,0.408,0.378,0.209,0.180,�k,2.1,��
2016/08/14,19:10,0.428,0.255,0.450,0.406,0.375,0.208,0.178,�k,1.4,��
2016/08/14,19:20,0.431,0.254,0.445,0.409,0.373,0.208,0.178,�k,1.0,��
2016/08/14,19:30,0.435,0.253,0.450,0.408,0.377,0.209,0.180,�k�k��,0.8,��
2016/08/14,19:40,0.432,0.255,0.451,0.405,0.376,0.209,0.179,�k,1.0,��
2016/08/14,19:50,0.429,0.254,0.445,0.407,0.373,0.208,0.179,���k��,0.7,��
2016/08/14,20:00,0.433,0.255,0.452,0.408,0.376,0.209,0.179,-,CALM,��
2016/08/14,20:10,0.432,0.255,0.451,0.404,0.376,0.209,0.179,-,CALM,��
2016/08/14,20:20,0.430,0.254,0.447,0.409,0.373,0.209,0.179,��,0.6,��
2016/08/14,20:30,0.434,0.255,0.451,0.407,0.375,0.210,0.181,-,CALM,��
2016/08/14,20:40,0.431,0.254,0.450,0.404,0.378,0.208,0.179,�k�k��,0.5,��
2016/08/14,20:50,0.429,0.256,0.446,0.409,0.373,0.209,0.179,-,CALM,��
2016/08/14,21:00,0.433,0.256,0.450,0.408,0.376,0.210,0.179,-,CALM,��
2016/08/14,21:10,0.432,0.254,0.450,0.406,0.376,0.209,0.179,-,CALM,��
2016/08/14,21:20,0.428,0.256,0.448,0.410,0.373,0.211,0.180,-,CALM,��
2016/08/14,21:30,0.432,0.256,0.452,0.405,0.378,0.209,0.180,-,CALM,��
2016/08/14,21:40,0.430,0.253,0.448,0.408,0.374,0.210,0.179,-,CALM,��
2016/08/14,21:50,0.432,0.256,0.450,0.409,0.374,0.210,0.181,-,CALM,��
2016/08/14,22:00,0.433,0.254,0.451,0.407,0.378,0.210,0.179,��쐼,0.6,��
2016/08/14,22:10,0.431,0.255,0.447,0.411,0.376,0.210,0.180,-,CALM,��
2016/08/14,22:20,0.434,0.255,0.451,0.408,0.375,0.210,0.180,-,CALM,��
2016/08/14,22:30,0.430,0.255,0.452,0.408,0.378,0.210,0.179,��,1.6,��
2016/08/14,22:40,0.430,0.255,0.447,0.410,0.374,0.210,0.180,��,2.6,��
2016/08/14,22:50,0.433,0.256,0.451,0.407,0.377,0.209,0.180,��,2.9,��
2016/08/14,23:00,0.430,0.254,0.448,0.407,0.377,0.211,0.181,��쓌,2.5,��
2016/08/14,23:10,0.432,0.256,0.446,0.408,0.373,0.209,0.182,��쓌,2.6,��
2016/08/14,23:20,0.433,0.255,0.453,0.406,0.376,0.210,0.181,�쓌,2.7,��
2016/08/14,23:30,0.428,0.255,0.447,0.409,0.376,0.211,0.180,��쓌,2.8,��
2016/08/14,23:40,0.433,0.255,0.448,0.409,0.373,0.210,0.181,��,1.9,��
2016/08/14,23:50,0.432,0.254,0.453,0.406,0.378,0.210,0.178,��,2.7,��
